When you browse on this site, cookies collect data to enhance your experience and personalize the content and advertising you see.
Visit our Privacy Policy to learn more. By continuing to use the site, you agree to this use of cookies and data.
  • In Hungary
  • List of Countries
  • For 7 days
  • Water Temperature
  • Satellite Maps
  • Weather Map
  • News
  • Weather Widgets
  • user-avatar
    Login

    Hourly Weather Weinzierl am Walde

    Today, 24 March, Sunday

    Time Temperature Precipitation Wind Pressure Humidity
    00:00 +11°C° 0 mm 1 mps 750 mmHg 75%
    01:00 +11°C° 0 mm 1 mps 750 mmHg 74%
    02:00 +10°C° 0 mm 1 mps 750 mmHg 76%
    03:00 +10°C° 0 mm 1 mps 750 mmHg 77%
    04:00 +10°C° 0 mm 1 mps 750 mmHg 79%
    05:00 +10°C° 0 mm 1 mps 750 mmHg 79%
    06:00 +10°C° 0 mm 1 mps 750 mmHg 80%
    07:00 +10°C° 0 mm 1 mps 750 mmHg 81%
    08:00 +12°C° 0 mm 1 mps 749 mmHg 76%
    09:00 +14°C° 0 mm 1 mps 749 mmHg 71%
    10:00 +16°C° 0 mm 1 mps 749 mmHg 65%
    11:00 +18°C° 0 mm 1 mps 748 mmHg 61%
    12:00 +19°C° 0 mm 1 mps 748 mmHg 56%
    13:00 +20°C° 0 mm 1 mps 747 mmHg 52%
    14:00 +20°C° 0 mm 1 mps 747 mmHg 51%
    15:00 +20°C° 0 mm 1 mps 746 mmHg 50%
    16:00 +20°C° 0 mm 1 mps 746 mmHg 49%
    17:00 +18°C° 0 mm 1 mps 746 mmHg 57%
    18:00 +15°C° 0 mm 1 mps 745 mmHg 65%
    19:00 +13°C° 0 mm 1 mps 745 mmHg 72%
    20:00 +13°C° 0 mm 1 mps 745 mmHg 76%
    21:00 +12°C° 0 mm 1 mps 746 mmHg 79%
    22:00 +12°C° 0 mm 2 mps 746 mmHg 83%
    23:00 +10°C° 0.1 mm 2 mps 746 mmHg 84%

    Tomorrow, 25 March, Monday

    Time Temperature Precipitation Wind Pressure Humidity
    00:00 +11°C° 0.1 mm 1 mps 745 mmHg 86%
    01:00 +11°C° 0.1 mm 1 mps 745 mmHg 87%
    02:00 +10°C° 0.2 mm 2 mps 745 mmHg 87%
    03:00 +10°C° 0.2 mm 2 mps 745 mmHg 87%
    04:00 +9°C° 0.2 mm 3 mps 744 mmHg 86%
    05:00 +9°C° 0 mm 3 mps 744 mmHg 86%
    06:00 +9°C° 0 mm 3 mps 744 mmHg 86%
    07:00 +8°C° 0 mm 3 mps 744 mmHg 85%
    08:00 +9°C° 0.1 mm 3 mps 744 mmHg 79%
    09:00 +8°C° 0.1 mm 4 mps 744 mmHg 72%
    10:00 +10°C° 0.1 mm 4 mps 744 mmHg 66%
    11:00 +10°C° 0.2 mm 5 mps 744 mmHg 58%
    12:00 +10°C° 0.2 mm 6 mps 743 mmHg 50%
    13:00 +11°C° 0.2 mm 7 mps 743 mmHg 43%
    14:00 +10°C° 0.1 mm 7 mps 743 mmHg 45%
    15:00 +10°C° 0.1 mm 7 mps 743 mmHg 47%
    16:00 +9°C° 0.1 mm 7 mps 744 mmHg 50%
    17:00 +8°C° 0.1 mm 6 mps 744 mmHg 54%
    18:00 +6°C° 0.1 mm 5 mps 745 mmHg 58%
    19:00 +5°C° 0.1 mm 4 mps 745 mmHg 63%
    20:00 +5°C° 0 mm 4 mps 746 mmHg 64%
    21:00 +4°C° 0 mm 3 mps 747 mmHg 64%
    22:00 +4°C° 0 mm 3 mps 747 mmHg 65%
    23:00 +3°C° 0 mm 3 mps 748 mmHg 67%

    Day after tomorrow, 26 March, Tuesday

    Time Temperature Precipitation Wind Pressure Humidity
    00:00 +3°C° 0 mm 3 mps 748 mmHg 69%
    01:00 +3°C° 0 mm 3 mps 749 mmHg 72%
    02:00 +2°C° 0 mm 3 mps 749 mmHg 74%
    03:00 +2°C° 0 mm 3 mps 750 mmHg 77%
    04:00 +2°C° 0 mm 3 mps 750 mmHg 80%
    05:00 +1°C° 0 mm 4 mps 750 mmHg 80%
    06:00 +1°C° 0 mm 4 mps 751 mmHg 80%
    07:00 +1°C° 0 mm 4 mps 752 mmHg 80%
    08:00 +3°C° 0 mm 4 mps 752 mmHg 74%
    09:00 +4°C° 0 mm 4 mps 752 mmHg 67%
    10:00 +6°C° 0 mm 5 mps 752 mmHg 61%
    11:00 +7°C° 0 mm 5 mps 752 mmHg 56%
    12:00 +8°C° 0 mm 4 mps 752 mmHg 52%
    13:00 +10°C° 0 mm 4 mps 752 mmHg 47%
    14:00 +10°C° 0 mm 4 mps 751 mmHg 45%
    15:00 +10°C° 0 mm 4 mps 751 mmHg 44%
    16:00 +10°C° 0 mm 4 mps 751 mmHg 42%
    17:00 +9°C° 0 mm 3 mps 751 mmHg 49%
    18:00 +7°C° 0 mm 3 mps 752 mmHg 56%
    19:00 +6°C° 0 mm 2 mps 752 mmHg 63%
    20:00 +5°C° 0 mm 2 mps 752 mmHg 66%
    21:00 +5°C° 0 mm 2 mps 753 mmHg 69%
    22:00 +4°C° 0 mm 2 mps 753 mmHg 71%
    23:00 +4°C° 0 mm 2 mps 753 mmHg 74%

    27 March, Wednesday

    Time Temperature Precipitation Wind Pressure Humidity
    00:00 +4°C° 0 mm 2 mps 753 mmHg 76%
    01:00 +4°C° 0 mm 2 mps 753 mmHg 78%
    02:00 +4°C° 0 mm 2 mps 753 mmHg 78%
    03:00 +3°C° 0 mm 2 mps 753 mmHg 79%
    04:00 +3°C° 0 mm 2 mps 753 mmHg 80%
    05:00 +3°C° 0 mm 2 mps 753 mmHg 79%
    06:00 +3°C° 0 mm 2 mps 753 mmHg 79%
    07:00 +3°C° 0 mm 2 mps 754 mmHg 79%
    08:00 +5°C° 0 mm 2 mps 754 mmHg 71%
    09:00 +6°C° 0 mm 2 mps 754 mmHg 63%
    10:00 +8°C° 0 mm 2 mps 754 mmHg 54%
    11:00 +8°C° 0 mm 2 mps 754 mmHg 53%
    12:00 +9°C° 0 mm 2 mps 754 mmHg 51%
    13:00 +9°C° 0 mm 2 mps 754 mmHg 50%
    14:00 +9°C° 0 mm 2 mps 754 mmHg 50%
    15:00 +9°C° 0 mm 2 mps 753 mmHg 50%
    16:00 +10°C° 0 mm 2 mps 753 mmHg 50%
    17:00 +9°C° 0 mm 2 mps 754 mmHg 55%
    18:00 +8°C° 0 mm 2 mps 754 mmHg 60%
    19:00 +8°C° 0 mm 1 mps 754 mmHg 66%
    20:00 +7°C° 0 mm 1 mps 755 mmHg 68%
    21:00 +7°C° 0 mm 1 mps 755 mmHg 70%
    22:00 +7°C° 0 mm 1 mps 755 mmHg 73%
    23:00 +6°C° 0 mm 1 mps 755 mmHg 75%

    28 March, Thursday

    Time Temperature Precipitation Wind Pressure Humidity
    00:00 +6°C° 0 mm 1 mps 755 mmHg 78%
    01:00 +5°C° 0 mm 1 mps 755 mmHg 80%
    02:00 +5°C° 0 mm 1 mps 755 mmHg 81%
    03:00 +5°C° 0 mm 1 mps 755 mmHg 83%
    04:00 +5°C° 0 mm 1 mps 755 mmHg 84%
    05:00 +5°C° 0 mm 1 mps 755 mmHg 83%
    06:00 +5°C° 0 mm 1 mps 755 mmHg 83%
    07:00 +6°C° 0 mm 1 mps 755 mmHg 82%
    08:00 +7°C° 0 mm 1 mps 755 mmHg 76%
    09:00 +8°C° 0 mm 2 mps 755 mmHg 70%
    10:00 +10°C° 0 mm 2 mps 755 mmHg 64%
    11:00 +12°C° 0.1 mm 1 mps 755 mmHg 61%
    12:00 +13°C° 0.1 mm 1 mps 755 mmHg 59%
    13:00 +14°C° 0.1 mm 1 mps 755 mmHg 56%
    14:00 +13°C° 0.1 mm 1 mps 755 mmHg 56%
    15:00 +13°C° 0.1 mm 1 mps 754 mmHg 55%
    16:00 +13°C° 0.1 mm 1 mps 754 mmHg 55%
    17:00 +12°C° 0.1 mm 1 mps 754 mmHg 60%
    18:00 +11°C° 0.1 mm 1 mps 754 mmHg 66%
    19:00 +10°C° 0.1 mm 1 mps 755 mmHg 72%
    20:00 +10°C° 0 mm 1 mps 755 mmHg 74%
    21:00 +9°C° 0 mm 1 mps 755 mmHg 76%
    22:00 +9°C° 0 mm 1 mps 756 mmHg 78%
    23:00 +9°C° 0 mm 1 mps 756 mmHg 79%

    29 March, Friday

    Time Temperature Precipitation Wind Pressure Humidity
    00:00 +8°C° 0 mm 1 mps 756 mmHg 81%
    01:00 +8°C° 0 mm 1 mps 756 mmHg 82%
    02:00 +8°C° 0 mm 1 mps 756 mmHg 83%
    03:00 +7°C° 0 mm 1 mps 756 mmHg 84%
    04:00 +7°C° 0 mm 1 mps 756 mmHg 84%
    05:00 +7°C° 0 mm 1 mps 756 mmHg 84%
    06:00 +7°C° 0 mm 1 mps 756 mmHg 83%
    07:00 +7°C° 0 mm 1 mps 756 mmHg 83%
    08:00 +9°C° 0 mm 1 mps 756 mmHg 76%
    09:00 +11°C° 0 mm 1 mps 755 mmHg 68%
    10:00 +12°C° 0 mm 1 mps 755 mmHg 61%
    11:00 +13°C° 0 mm 2 mps 755 mmHg 57%
    12:00 +14°C° 0 mm 2 mps 755 mmHg 53%
    13:00 +15°C° 0 mm 2 mps 754 mmHg 50%
    14:00 +14°C° 0 mm 2 mps 754 mmHg 50%
    15:00 +14°C° 0 mm 2 mps 753 mmHg 50%
    16:00 +14°C° 0 mm 2 mps 753 mmHg 50%
    17:00 +13°C° 0 mm 1 mps 753 mmHg 55%
    18:00 +11°C° 0 mm 1 mps 753 mmHg 60%
    19:00 +9°C° 0 mm 0 mps 753 mmHg 65%
    20:00 +8°C° 0 mm 0 mps 753 mmHg 67%
    21:00 +8°C° 0 mm 0 mps 754 mmHg 68%
    22:00 +7°C° 0 mm 0 mps 754 mmHg 69%
    23:00 +7°C° 0 mm 0 mps 754 mmHg 72%
    Show more